"startDT [UTC]","vpos","CH4 [ppm]","stdev(CH4) [ppm]","CO2 [ppm]","stdev(CO2) [ppm]","H2O [ppm]","stdev(H2O)","p_LGR [torr]","T_LGR [C]","mt1_LGR [us]","mt2_LGR [us]","T_ECpre [C]","T_EC1 [C]","T_EC2 [C]","p_inlet [hPa]","p_in [hPa]","p_out [hPa]","T_inlet [C]","RH_inlet [%]","dwpt_inlet [C]","T_vent [C]","RH_vent [%]","dwpt_vent [C]","flow_vent [l min-1]","flow_inlet [l min-1]","dwpt_sample [C]","T_room [C]"
2012-07-19 00:00:00,0.0,1.9113,0.0010,385.88,0.26,185.7,30.8,137.99,35.57,24.64,36.43,0.93,-25.75,7.32,-66,554,-939,29.6,19.0,3.5,29.5,1.2,-30.3,5.73,2.35,-27.4,32.9
2012-07-19 00:01:00,0.0,1.9110,0.0010,386.05,0.32,182.1,28.3,137.99,35.55,24.64,36.42,0.93,-25.75,7.78,-66,554,-939,29.5,18.9,3.4,29.4,1.2,-30.2,5.73,2.35,-27.4,32.9
2012-07-19 00:02:00,0.0,1.9108,0.0011,385.76,0.33,181.3,28.3,137.99,35.53,24.64,36.43,0.94,-25.75,8.22,-66,554,-939,29.5,19.1,3.4,29.4,1.2,-30.4,5.73,2.35,-27.4,32.9
2012-07-19 00:03:00,0.0,1.9105,0.0012,385.82,0.31,177.4,26.5,138.00,35.51,24.65,36.42,0.94,-25.75,8.65,-66,554,-939,29.4,19.1,3.4,29.4,1.2,-30.3,5.73,2.36,-27.5,32.8
2012-07-19 00:04:00,0.0,1.9109,0.0010,385.79,0.29,177.2,27.3,138.00,35.49,24.65,36.42,0.95,-25.74,9.06,-66,554,-938,29.4,19.1,3.4,29.3,1.2,-30.2,5.73,2.36,-27.4,32.8
2012-07-19 00:05:00,0.0,1.9110,0.0008,385.90,0.32,182.6,25.9,138.00,35.47,24.65,36.43,0.95,-25.74,9.45,-66,554,-939,29.3,19.0,3.3,29.3,1.2,-30.1,5.73,2.36,-27.5,32.8
2012-07-19 00:06:00,0.0,1.9108,0.0011,385.91,0.32,173.4,26.6,138.00,35.45,24.64,36.43,0.95,-25.74,9.85,-66,553,-938,29.3,19.2,3.5,29.3,1.2,-30.1,5.73,2.36,-27.5,32.8
2012-07-19 00:07:00,0.0,1.9108,0.0010,385.90,0.32,168.8,34.9,138.00,35.43,24.65,36.43,0.97,-25.74,10.22,-66,553,-939,29.3,19.3,3.5,29.2,1.2,-30.2,5.73,2.36,-27.5,32.7
2012-07-19 00:08:00,0.0,1.9110,0.0011,385.51,0.33,172.1,28.7,138.00,35.41,24.65,36.43,0.96,-25.74,10.59,-66,553,-938,29.2,19.7,3.7,29.2,1.2,-30.2,5.73,2.36,-27.5,32.7
2012-07-19 00:09:00,0.0,1.9113,0.0011,386.34,0.28,169.4,26.3,138.00,35.39,24.64,36.42,0.96,-25.74,10.95,-66,553,-938,29.2,19.5,3.6,29.2,1.2,-30.1,5.73,2.36,-27.4,32.7
2012-07-19 00:10:00,0.0,1.9114,0.0009,386.32,0.37,170.7,29.1,138.00,35.37,24.65,36.43,0.96,-25.74,11.29,-66,553,-939,29.2,19.6,3.6,29.2,1.2,-30.1,5.73,2.36,-27.4,32.6
2012-07-19 00:11:00,0.0,1.9119,0.0009,386.76,0.33,165.8,23.7,138.00,35.35,24.64,36.42,0.94,-25.73,11.63,-66,553,-938,29.1,19.4,3.4,29.1,1.2,-30.2,5.73,2.37,-27.5,32.6
2012-07-19 00:12:00,0.0,1.9116,0.0009,386.49,0.31,162.5,26.3,138.00,35.33,24.65,36.43,0.93,-25.73,11.95,-66,553,-939,29.1,19.7,3.6,29.1,1.2,-30.3,5.73,2.36,-27.5,32.6
2012-07-19 00:13:00,0.0,1.9114,0.0013,386.43,0.33,164.9,26.7,138.00,35.31,24.65,36.43,0.93,-25.73,12.27,-66,552,-938,29.1,19.6,3.6,29.0,1.2,-30.3,5.73,2.37,-27.5,32.6
2012-07-19 00:14:00,0.0,1.9112,0.0012,386.32,0.32,159.7,26.0,138.00,35.29,24.65,36.44,0.93,-25.73,12.57,-66,553,-939,29.0,19.7,3.5,29.0,1.2,-30.2,5.73,2.37,-27.5,32.5
2012-07-19 00:15:00,0.0,1.9106,0.0010,386.64,0.32,153.5,28.1,138.00,35.27,24.65,36.43,0.93,-25.73,12.86,-66,552,-938,29.0,19.4,3.4,29.0,1.2,-30.3,5.73,2.37,-27.6,32.5
2012-07-19 00:16:00,0.0,1.9106,0.0010,386.50,0.32,152.4,25.2,138.00,35.24,24.65,36.44,0.92,-25.73,13.14,-66,552,-938,28.9,19.4,3.3,28.9,1.2,-30.3,5.73,2.37,-27.6,32.4
2012-07-19 00:17:00,0.0,1.9102,0.0009,386.40,0.31,150.5,30.9,138.01,35.22,24.65,36.43,0.94,-25.73,13.41,-66,552,-938,28.9,19.6,3.4,28.9,1.2,-30.3,5.73,2.37,-27.6,32.3
2012-07-19 00:18:00,0.0,1.9103,0.0010,386.01,0.46,140.6,24.8,138.01,35.20,24.65,36.43,0.94,-25.73,13.66,-66,552,-938,28.9,20.1,3.7,28.8,1.2,-30.4,5.73,2.37,-27.7,32.3
2012-07-19 00:19:00,0.0,1.9099,0.0009,385.80,0.32,144.1,27.7,138.01,35.18,24.65,36.45,0.94,-25.72,13.90,-66,552,-938,28.8,19.9,3.5,28.8,1.2,-30.4,5.73,2.37,-27.7,32.3
2012-07-19 00:20:00,0.0,1.9097,0.0012,386.21,0.32,135.7,31.5,138.01,35.16,24.65,36.43,0.93,-25.72,14.14,-66,551,-938,28.8,19.4,3.2,28.8,1.2,-30.4,5.73,2.37,-27.7,32.2
2012-07-19 00:21:00,0.0,1.9095,0.0012,386.12,0.33,138.1,30.5,138.01,35.14,24.65,36.44,0.95,-25.72,14.36,-66,551,-937,28.7,19.5,3.2,28.7,1.2,-30.4,5.73,2.37,-27.7,32.2
2012-07-19 00:22:00,0.0,1.9099,0.0010,386.17,0.28,143.1,32.2,138.01,35.12,24.65,36.43,0.95,-25.72,14.58,-66,551,-938,28.7,19.6,3.3,28.7,1.3,-30.1,5.73,2.37,-27.7,32.2
2012-07-19 00:23:00,0.0,1.9096,0.0010,385.96,0.33,138.1,25.7,138.01,35.10,24.65,36.44,0.95,-25.72,14.78,-66,551,-938,28.7,19.8,3.3,28.7,1.3,-30.2,5.73,2.38,-27.7,32.2
2012-07-19 00:24:00,0.0,1.9102,0.0011,386.22,0.33,126.4,25.6,138.01,35.07,24.65,36.43,0.95,-25.71,14.99,-66,551,-937,28.7,20.2,3.6,28.6,1.3,-30.2,5.73,2.38,-27.7,32.2
2012-07-19 00:25:00,0.0,1.9113,0.0011,386.48,0.31,142.3,29.1,138.01,35.05,24.65,36.44,0.95,-25.71,15.17,-65,551,-938,28.6,20.4,3.8,28.6,1.3,-30.2,5.73,2.38,-27.7,32.1
2012-07-19 00:26:00,0.0,1.9114,0.0009,386.47,0.33,127.9,30.8,138.01,35.03,24.65,36.44,0.95,-25.71,15.35,-65,551,-937,28.6,20.4,3.8,28.6,1.3,-30.3,5.73,2.38,-27.7,32.1
2012-07-19 00:27:00,0.0,1.9111,0.0011,386.50,0.35,125.8,28.0,138.01,35.01,24.65,36.44,0.96,-25.71,15.53,-65,551,-937,28.6,20.1,3.5,28.5,1.3,-30.3,5.73,2.38,-27.7,32.1
2012-07-19 00:28:00,0.0,1.9112,0.0011,386.40,0.32,133.9,28.5,138.01,34.99,24.65,36.45,0.96,-25.70,15.69,-65,551,-938,28.6,20.3,3.6,28.5,1.3,-30.3,5.73,2.38,-27.7,32.0
2012-07-19 00:29:00,0.0,1.9105,0.0010,386.57,0.32,124.3,28.6,138.01,34.97,24.65,36.45,0.97,-25.71,15.84,-65,551,-937,28.5,20.1,3.4,28.5,1.3,-30.3,5.73,2.39,-27.7,32.0
2012-07-19 00:30:00,0.0,1.9106,0.0010,386.61,0.26,124.3,29.1,138.01,34.94,24.64,36.44,0.96,-25.71,15.99,-65,551,-937,28.5,20.3,3.6,28.5,1.3,-30.3,5.73,2.39,-27.8,32.0
2012-07-19 00:31:00,0.0,1.9102,0.0011,386.49,0.35,130.4,27.7,138.01,34.92,24.65,36.44,0.97,-25.70,16.14,-65,550,-938,28.5,20.4,3.6,28.4,1.3,-30.3,5.73,2.38,-27.7,32.0
2012-07-19 00:32:00,0.0,1.9100,0.0009,386.80,0.35,122.6,33.1,138.01,34.90,24.65,36.44,0.97,-25.71,16.27,-65,550,-937,28.4,20.4,3.6,28.4,1.3,-30.3,5.73,2.39,-27.8,31.9
2012-07-19 00:33:00,0.0,1.9101,0.0009,386.44,0.37,119.1,31.1,138.02,34.88,24.64,36.44,0.96,-25.71,16.40,-65,550,-938,28.4,20.5,3.6,28.4,1.3,-30.3,5.73,2.39,-27.8,31.9
2012-07-19 00:34:00,0.0,1.9098,0.0012,386.41,0.35,122.2,26.2,138.01,34.86,24.65,36.45,0.96,-25.71,16.52,-65,550,-937,28.4,20.3,3.5,28.4,1.3,-30.4,5.73,2.38,-27.8,31.9
2012-07-19 00:35:00,0.0,1.9092,0.0009,386.66,0.34,115.0,30.6,138.02,34.84,24.65,36.44,0.96,-25.70,16.64,-65,550,-937,28.4,20.9,3.8,28.3,1.3,-30.3,5.73,2.38,-27.8,31.9
2012-07-19 00:36:00,0.0,1.9085,0.0011,386.87,0.33,116.1,28.0,138.02,34.81,24.65,36.45,0.95,-25.71,16.76,-65,550,-937,28.3,21.1,3.9,28.3,1.3,-30.4,5.73,2.38,-27.8,31.9
2012-07-19 00:37:00,0.0,1.9081,0.0010,387.01,0.30,113.9,31.1,138.02,34.79,24.65,36.44,0.96,-25.71,16.86,-65,550,-937,28.3,21.4,4.1,28.2,1.3,-30.4,5.73,2.38,-27.8,31.9
2012-07-19 00:38:00,0.0,1.9091,0.0010,386.85,0.38,109.4,30.7,138.02,34.77,24.65,36.44,0.95,-25.71,16.96,-65,550,-938,28.2,21.6,4.2,28.2,1.3,-30.4,5.73,2.38,-27.9,31.9
2012-07-19 00:39:00,0.0,1.9093,0.0010,387.00,0.33,105.7,30.9,138.02,34.74,24.65,36.45,0.94,-25.71,17.06,-65,550,-937,28.2,21.5,4.2,28.2,1.3,-30.1,5.73,2.39,-27.9,31.8
2012-07-19 00:40:00,0.0,1.9092,0.0010,386.83,0.31,107.7,33.1,138.02,34.72,24.65,36.45,0.94,-25.71,17.16,-65,550,-937,28.2,21.5,4.1,28.2,1.4,-29.8,5.73,2.39,-27.9,31.7
2012-07-19 00:41:00,0.0,1.9090,0.0010,387.11,0.34,97.7,31.2,138.02,34.69,24.65,36.44,0.92,-25.71,17.25,-65,549,-937,28.1,21.3,3.9,28.1,1.4,-29.8,5.73,2.40,-28.0,31.7
2012-07-19 00:42:00,0.0,1.9090,0.0009,387.06,0.33,100.4,27.9,138.02,34.67,24.65,36.44,0.92,-25.71,17.33,-65,549,-937,28.1,21.3,3.9,28.1,1.3,-29.9,5.73,2.40,-28.0,31.6
2012-07-19 00:43:00,0.0,1.9080,0.0010,386.93,0.34,91.2,30.9,138.02,34.64,24.65,36.45,0.96,-25.71,17.41,-65,549,-937,28.1,21.7,4.1,28.1,1.4,-29.7,5.73,2.40,-28.0,31.6
2012-07-19 00:44:00,0.0,1.9080,0.0011,386.97,0.35,80.2,27.7,138.02,34.62,24.65,36.45,0.93,-25.72,17.49,-65,549,-937,28.1,21.5,4.0,28.0,1.4,-29.7,5.73,2.40,-28.0,31.6
2012-07-19 00:45:00,0.0,1.9079,0.0009,387.23,0.31,86.9,30.2,138.02,34.59,24.65,36.44,0.93,-25.72,17.56,-65,549,-937,28.0,21.8,4.1,28.0,1.4,-29.7,5.73,2.40,-28.0,31.5
2012-07-19 00:46:00,0.0,1.9075,0.0009,386.75,0.28,77.1,28.4,138.03,34.57,24.65,36.45,0.96,-25.72,17.63,-65,549,-937,28.0,22.0,4.3,27.9,1.4,-29.7,5.73,2.39,-28.1,31.5
2012-07-19 00:47:00,0.0,1.9076,0.0012,386.86,0.31,86.3,31.9,138.03,34.54,24.65,36.45,0.95,-25.72,17.70,-65,549,-936,27.9,22.1,4.3,27.9,1.4,-29.7,5.73,2.39,-28.1,31.4
2012-07-19 00:48:00,0.0,1.9075,0.0010,386.96,0.35,82.2,25.9,138.03,34.52,24.65,36.45,0.95,-25.72,17.76,-65,549,-937,27.9,21.9,4.1,27.9,1.4,-29.7,5.73,2.40,-28.2,31.4
2012-07-19 00:49:00,0.0,1.9080,0.0012,386.92,0.32,77.0,30.4,138.03,34.49,24.65,36.45,0.95,-25.72,17.82,-65,548,-936,27.9,22.1,4.2,27.8,1.4,-29.8,5.73,2.41,-28.2,31.4
2012-07-19 00:50:00,0.0,1.9074,0.0011,386.73,0.34,72.5,28.4,138.03,34.47,24.65,36.46,0.95,-25.72,17.89,-65,548,-937,27.8,22.5,4.5,27.8,1.4,-29.8,5.73,2.42,-28.2,31.3
2012-07-19 00:51:00,0.0,1.9076,0.0012,387.10,0.30,69.6,31.3,138.03,34.44,24.65,36.46,0.95,-25.72,17.94,-65,548,-937,27.8,22.2,4.2,27.8,1.4,-29.8,5.73,2.42,-28.2,31.2
2012-07-19 00:52:00,0.0,1.9076,0.0010,387.12,0.31,73.1,29.3,138.03,34.42,24.65,36.46,0.95,-25.73,17.99,-65,548,-936,27.7,22.4,4.3,27.7,1.4,-29.9,5.73,2.41,-28.2,31.3
2012-07-19 00:53:00,0.0,1.9073,0.0010,386.99,0.30,69.7,30.3,138.03,34.39,24.65,36.46,0.95,-25.73,18.04,-65,548,-937,27.7,22.8,4.5,27.7,1.4,-29.8,5.73,2.40,-28.3,31.2
2012-07-19 00:54:00,0.0,1.9071,0.0008,387.20,0.33,61.2,32.3,138.03,34.36,24.65,36.45,0.95,-25.74,18.09,-65,548,-936,27.7,22.2,4.1,27.6,1.4,-29.7,5.73,2.39,-28.3,31.1
2012-07-19 00:55:00,0.0,1.9071,0.0008,387.07,0.30,59.9,31.3,138.03,34.33,24.65,36.46,0.96,-25.74,18.14,-65,548,-936,27.6,22.0,4.0,27.6,1.4,-29.7,5.73,2.41,-28.3,31.0
2012-07-19 00:56:00,0.0,1.9062,0.0010,387.33,0.27,62.5,30.6,138.03,34.31,24.65,36.45,0.96,-25.74,18.18,-65,548,-937,27.6,22.1,4.0,27.6,1.4,-29.7,5.73,2.42,-28.4,31.0
2012-07-19 00:57:00,0.0,1.9067,0.0009,386.85,0.38,53.9,24.0,138.03,34.28,24.65,36.46,0.96,-25.75,18.22,-65,548,-936,27.5,22.6,4.3,27.5,1.4,-29.7,5.73,2.43,-28.3,31.0
2012-07-19 00:58:00,0.0,1.9068,0.0009,387.30,0.34,50.3,28.9,138.04,34.25,24.65,36.46,0.96,-25.75,18.26,-65,547,-936,27.5,21.9,3.8,27.5,1.4,-29.8,5.73,2.42,-28.3,30.9
2012-07-19 00:59:00,0.0,1.9057,0.0009,387.16,0.38,49.0,28.6,138.04,34.23,24.66,36.46,0.96,-25.75,18.29,-64,547,-937,27.5,22.3,4.0,27.4,1.4,-29.8,5.73,2.40,-28.3,30.8
2012-07-19 01:00:00,0.0,1.9061,0.0010,387.09,0.36,41.0,26.6,138.04,34.20,24.65,36.46,0.97,-25.76,18.33,-64,547,-936,27.4,22.2,3.9,27.4,1.4,-29.8,5.73,2.40,-28.4,30.8
2012-07-19 01:01:00,0.0,1.9059,0.0011,387.32,0.31,41.6,29.0,138.04,34.17,24.65,36.45,0.96,-25.76,18.36,-64,547,-936,27.4,22.0,3.7,27.3,1.4,-29.8,5.73,2.42,-28.5,30.7
2012-07-19 01:02:00,0.0,1.9054,0.0010,387.40,0.31,34.1,31.3,138.04,34.14,24.65,36.45,0.95,-25.77,18.39,-64,547,-936,27.3,22.0,3.7,27.3,1.4,-29.9,5.73,2.43,-28.5,30.7
2012-07-19 01:03:00,0.0,1.9057,0.0010,387.35,0.32,27.6,24.2,138.04,34.11,24.65,36.45,0.96,-25.77,18.42,-64,547,-936,27.3,21.8,3.6,27.2,1.4,-29.9,5.73,2.42,-28.5,30.8
2012-07-19 01:04:00,0.0,1.9052,0.0010,387.21,0.36,39.1,29.3,138.04,34.08,24.65,36.46,0.95,-25.77,18.45,-64,547,-936,27.2,22.2,3.8,27.2,1.4,-29.9,5.73,2.41,-28.5,30.8
2012-07-19 01:05:00,0.0,1.9054,0.0012,386.89,0.29,34.6,28.3,138.04,34.06,24.65,36.46,0.94,-25.77,18.48,-64,546,-936,27.2,22.7,4.1,27.2,1.4,-29.8,5.73,2.41,-28.5,30.8
2012-07-19 01:06:00,0.0,1.9050,0.0008,387.02,0.31,29.7,24.7,138.04,34.03,24.65,36.47,0.92,-25.79,18.51,-64,546,-936,27.2,22.4,3.9,27.1,1.4,-29.8,5.73,2.43,-28.5,30.7
2012-07-19 01:07:00,0.0,1.9054,0.0011,387.04,0.34,23.6,20.8,138.04,34.00,24.65,36.46,0.94,-25.78,18.53,-64,546,-935,27.1,22.3,3.7,27.1,1.4,-29.8,5.73,2.44,-28.5,30.7
2012-07-19 01:08:00,0.0,1.9051,0.0009,386.99,0.35,27.6,24.7,138.04,33.97,24.65,36.46,0.93,-25.78,18.56,-64,546,-935,27.1,22.3,3.7,27.1,1.4,-29.8,5.73,2.42,-28.4,30.7
2012-07-19 01:09:00,0.0,1.9050,0.0010,387.05,0.34,30.8,27.4,138.05,33.94,24.65,36.46,0.93,-25.80,18.57,-64,546,-936,27.1,22.5,3.8,27.1,1.4,-29.7,5.73,2.41,-28.4,30.6
2012-07-19 01:10:00,0.0,1.9044,0.0012,387.04,0.32,34.2,26.8,138.05,33.91,24.65,36.46,0.93,-25.79,18.59,-64,546,-936,27.1,23.0,4.2,27.1,1.4,-29.8,5.73,2.41,-28.4,30.6
2012-07-19 01:11:00,0.0,1.9039,0.0011,387.00,0.33,33.5,28.1,138.05,33.88,24.65,36.46,0.94,-25.80,18.62,-64,546,-936,27.1,23.1,4.2,27.0,1.4,-29.8,5.73,2.43,-28.4,30.5
2012-07-19 01:12:00,0.0,1.9035,0.0010,387.38,0.30,29.7,25.7,138.05,33.85,24.65,36.46,0.94,-25.80,18.64,-64,546,-936,27.0,22.4,3.8,27.0,1.4,-29.8,5.73,2.44,-28.4,30.5
2012-07-19 01:13:00,0.0,1.9038,0.0011,387.27,0.32,36.0,28.0,138.05,33.82,24.65,36.47,0.93,-25.81,18.65,-64,546,-936,27.0,22.4,3.7,27.0,1.4,-29.8,5.73,2.43,-28.4,30.5
2012-07-19 01:14:00,0.0,1.9036,0.0010,387.35,0.27,36.2,28.6,138.05,33.80,24.65,36.46,0.93,-25.82,18.68,-64,546,-936,27.0,22.5,3.8,27.0,1.4,-29.8,5.73,2.42,-28.4,30.5
2012-07-19 01:15:00,0.0,1.9041,0.0010,387.33,0.30,33.4,25.0,138.05,33.78,24.65,36.46,0.94,-25.82,18.69,-64,546,-936,27.0,22.6,3.8,27.0,1.4,-29.8,5.73,2.41,-28.4,30.5
2012-07-19 01:16:00,0.0,1.9041,0.0012,387.15,0.31,28.5,28.9,138.05,33.75,24.65,36.47,0.95,-25.82,18.70,-64,546,-936,27.0,22.7,3.8,26.9,1.4,-29.9,5.73,2.42,-28.4,30.5
2012-07-19 01:17:00,0.0,1.9041,0.0013,386.93,0.31,34.7,23.7,138.05,33.73,24.65,36.47,0.94,-25.82,18.72,-64,546,-936,26.9,22.9,4.0,26.9,1.4,-29.9,5.73,2.44,-28.4,30.5
2012-07-19 01:18:00,0.0,1.9037,0.0010,386.98,0.33,43.0,33.4,138.05,33.70,24.65,36.48,0.96,-25.83,18.74,-64,546,-936,26.9,22.6,3.7,26.9,1.4,-29.9,5.73,2.44,-28.4,30.5
2012-07-19 01:19:00,0.0,1.9040,0.0012,387.17,0.34,32.6,26.5,138.05,33.68,24.65,36.47,0.95,-25.83,18.75,-64,546,-936,26.9,22.5,3.7,26.9,1.4,-29.9,5.73,2.42,-28.4,30.4
2012-07-19 01:20:00,0.0,1.9039,0.0008,387.41,0.31,34.6,32.1,138.05,33.65,24.65,36.47,0.95,-25.83,18.76,-64,545,-936,26.9,22.5,3.7,26.9,1.4,-29.9,5.73,2.41,-28.4,30.4
2012-07-19 01:21:00,0.0,1.9034,0.0011,387.43,0.36,30.4,27.0,138.05,33.63,24.65,36.47,0.95,-25.83,18.77,-64,545,-936,26.9,22.7,3.8,26.9,1.4,-29.9,5.73,2.41,-28.4,30.4
2012-07-19 01:22:00,0.0,1.9035,0.0012,387.48,0.36,34.4,26.1,138.05,33.61,24.65,36.47,0.95,-25.84,18.78,-64,545,-935,26.9,22.6,3.8,26.9,1.4,-29.9,5.73,2.41,-28.3,30.4
2012-07-19 01:23:00,0.0,1.9033,0.0009,387.59,0.33,29.9,27.1,138.05,33.58,24.65,36.48,0.96,-25.84,18.80,-64,545,-935,26.9,22.8,3.9,26.8,1.4,-29.9,5.73,2.42,-28.3,30.3
2012-07-19 01:24:00,0.0,1.9034,0.0009,387.38,0.37,34.4,26.9,138.05,33.56,24.65,36.48,0.96,-25.84,18.80,-64,545,-935,26.9,23.0,4.0,26.8,1.4,-29.9,5.73,2.43,-28.3,30.4
2012-07-19 01:25:00,0.0,1.9028,0.0010,387.49,0.30,36.4,31.1,138.05,33.54,24.65,36.47,0.96,-25.84,18.82,-64,545,-936,26.9,23.1,4.0,26.8,1.4,-29.9,5.73,2.43,-28.3,30.3
2012-07-19 01:26:00,0.0,1.9027,0.0008,387.31,0.28,39.0,25.4,138.05,33.52,24.65,36.47,0.95,-25.85,18.82,-64,545,-935,26.9,23.4,4.2,26.8,1.4,-29.9,5.73,2.42,-28.3,30.4
2012-07-19 01:27:00,0.0,1.9028,0.0009,387.45,0.29,30.8,25.0,138.05,33.51,24.66,36.47,1.02,-25.84,18.38,-64,545,-935,26.8,23.0,4.0,26.8,1.4,-29.9,5.73,2.42,-28.3,30.4
2012-07-19 01:28:00,0.0,1.9028,0.0011,387.80,0.30,35.6,26.7,138.05,33.48,24.66,36.47,1.14,-25.83,16.46,-64,545,-936,26.8,22.8,3.8,26.8,1.4,-29.9,5.73,2.41,-28.3,30.3
2012-07-19 01:29:00,0.0,1.9028,0.0009,387.76,0.30,35.6,29.9,138.05,33.46,24.65,36.47,1.04,-25.85,14.12,-64,545,-936,26.8,23.2,4.1,26.8,1.4,-29.9,5.73,2.40,-28.3,30.3
2012-07-19 01:30:00,0.0,1.9028,0.0010,387.83,0.37,37.9,30.5,138.05,33.44,24.65,36.47,0.97,-25.90,11.74,-64,545,-936,26.8,23.1,4.0,26.8,1.4,-30.0,5.73,2.41,-28.3,30.3
2012-07-19 01:31:00,0.0,1.9025,0.0014,387.67,0.29,32.2,25.9,138.05,33.42,24.66,36.48,1.01,-25.91,9.41,-63,545,-935,26.8,23.0,3.9,26.8,1.4,-29.9,5.73,2.42,-28.3,30.3
2012-07-19 01:32:00,0.0,1.9034,0.0009,387.75,0.33,35.5,27.0,138.05,33.40,24.65,36.48,1.00,-25.92,7.18,-64,545,-935,26.8,22.7,3.7,26.7,1.4,-30.0,5.73,2.43,-28.3,30.4
2012-07-19 01:33:00,0.0,1.9032,0.0008,387.52,0.29,34.6,26.6,138.05,33.38,24.65,36.48,1.11,-25.93,5.04,-64,545,-935,26.8,22.6,3.7,26.8,1.4,-30.0,5.73,2.42,-28.3,30.3
2012-07-19 01:34:00,0.0,1.9029,0.0009,387.40,0.33,32.0,31.3,138.05,33.36,24.65,36.47,1.03,-25.92,3.02,-63,545,-935,26.8,22.9,3.8,26.7,1.5,-29.9,5.73,2.41,-28.3,30.2
2012-07-19 01:35:00,0.0,1.9021,0.0012,387.22,0.33,29.1,25.5,138.05,33.34,24.66,36.47,1.01,-25.92,1.10,-63,545,-935,26.8,23.1,3.9,26.7,1.4,-30.0,5.73,2.40,-28.3,30.2
2012-07-19 01:36:00,0.0,1.9026,0.0011,387.50,0.35,29.7,23.5,138.05,33.32,24.65,36.47,1.10,-25.92,-0.71,-63,545,-935,26.7,22.7,3.7,26.7,1.4,-30.0,5.73,2.40,-28.4,30.2
2012-07-19 01:37:00,0.0,1.9026,0.0011,387.53,0.29,31.4,30.5,138.05,33.29,24.65,36.47,1.00,-25.93,-2.42,-63,545,-935,26.7,22.7,3.7,26.6,1.4,-30.0,5.73,2.41,-28.3,30.1
2012-07-19 01:38:00,0.0,1.9025,0.0009,387.80,0.34,26.8,24.8,138.05,33.27,24.65,36.47,1.00,-25.92,-3.72,-63,545,-935,26.7,22.4,3.4,26.6,1.4,-30.0,5.73,2.41,-28.3,30.1
2012-07-19 01:39:00,0.0,1.9024,0.0010,387.93,0.32,24.3,24.8,138.05,33.25,24.65,36.48,1.07,-25.93,-5.11,-63,545,-935,26.7,22.5,3.5,26.6,1.4,-30.0,5.73,2.41,-28.3,30.1
2012-07-19 01:40:00,0.0,1.9025,0.0010,387.56,0.30,20.2,22.0,138.05,33.23,24.65,36.49,1.06,-25.92,-6.29,-63,544,-934,26.7,22.7,3.6,26.6,1.5,-30.0,5.73,2.41,-28.3,30.1
2012-07-19 01:41:00,0.0,1.9026,0.0010,387.93,0.42,29.8,27.6,138.05,33.21,24.66,36.48,0.97,-25.93,-7.50,-63,545,-934,26.6,22.5,3.4,26.6,1.4,-30.0,5.73,2.39,-28.3,30.1
2012-07-19 01:42:00,0.0,1.9021,0.0011,387.78,0.31,29.1,23.3,138.05,33.19,24.66,36.48,1.06,-25.93,-8.75,-63,544,-934,26.6,22.5,3.5,26.6,1.4,-30.0,5.73,2.38,-28.3,30.1
2012-07-19 01:43:00,0.0,1.9027,0.0010,387.72,0.27,22.5,20.6,138.05,33.17,24.65,36.47,1.06,-25.94,-9.85,-63,544,-935,26.6,22.6,3.5,26.6,1.5,-30.0,5.73,2.39,-28.4,30.0
2012-07-19 01:44:00,0.0,1.9029,0.0012,387.55,0.29,29.2,23.3,138.05,33.15,24.65,36.48,0.99,-25.94,-10.91,-63,544,-935,26.6,22.9,3.7,26.6,1.4,-30.1,5.73,2.41,-28.3,30.0
2012-07-19 01:45:00,0.0,1.9031,0.0011,387.85,0.30,29.6,25.8,138.05,33.13,24.65,36.47,1.01,-25.95,-11.93,-63,544,-935,26.6,22.5,3.5,26.6,1.5,-30.0,5.73,2.41,-28.3,30.0
2012-07-19 01:46:00,0.0,1.9032,0.0009,387.79,0.31,21.2,25.1,138.05,33.11,24.65,36.47,1.06,-25.95,-12.94,-63,544,-935,26.6,22.7,3.6,26.6,1.5,-30.0,5.73,2.41,-28.3,30.0
2012-07-19 01:47:00,0.0,1.9029,0.0011,387.70,0.34,27.0,23.3,138.05,33.09,24.65,36.48,1.03,-25.96,-13.90,-63,544,-935,26.6,23.0,3.7,26.5,1.5,-30.0,5.73,2.40,-28.3,30.0
2012-07-19 01:48:00,0.0,1.9027,0.0009,387.66,0.34,30.5,26.1,138.05,33.07,24.65,36.48,0.97,-25.96,-14.79,-63,544,-935,26.6,23.3,3.9,26.5,1.5,-30.0,5.73,2.39,-28.3,30.0
2012-07-19 01:49:00,0.0,1.9030,0.0011,387.78,0.26,22.1,22.6,138.05,33.05,24.65,36.47,1.03,-25.97,-15.65,-63,544,-935,26.5,23.3,3.9,26.5,1.4,-30.1,5.73,2.39,-28.3,30.0
2012-07-19 01:50:00,0.0,1.9028,0.0009,387.75,0.28,30.2,25.6,138.05,33.03,24.65,36.48,1.07,-25.98,-16.47,-63,544,-935,26.5,23.1,3.7,26.5,1.4,-30.1,5.73,2.39,-28.3,30.0
2012-07-19 01:51:00,0.0,1.9025,0.0009,387.85,0.29,36.8,27.8,138.05,33.02,24.66,36.47,1.01,-25.99,-17.23,-63,544,-935,26.5,22.9,3.7,26.5,1.4,-30.1,5.73,2.40,-28.3,29.9
2012-07-19 01:52:00,0.0,1.9022,0.0009,387.69,0.33,29.8,25.4,138.05,33.00,24.66,36.49,0.97,-26.00,-17.86,-63,544,-934,26.5,22.9,3.6,26.5,1.4,-30.1,5.73,2.41,-28.3,29.9
2012-07-19 01:53:00,0.0,1.9025,0.0010,387.86,0.30,32.1,27.0,138.06,32.98,24.66,36.48,1.02,-26.01,-18.52,-63,544,-934,26.5,22.6,3.4,26.5,1.4,-30.1,5.73,2.41,-28.3,29.9
2012-07-19 01:54:00,0.0,1.9028,0.0011,387.76,0.32,30.8,26.6,138.05,32.96,24.65,36.49,1.07,-26.03,-19.18,-63,544,-934,26.5,22.8,3.6,26.5,1.4,-30.1,5.73,2.40,-28.3,29.9
2012-07-19 01:55:00,0.0,1.9027,0.0009,387.57,0.32,34.5,25.8,138.05,32.94,24.65,36.49,1.01,-26.04,-19.80,-63,544,-935,26.5,23.2,3.8,26.5,1.4,-30.1,5.73,2.39,-28.3,29.9
2012-07-19 01:56:00,0.0,1.9017,0.0010,387.89,0.29,31.3,24.7,138.06,32.92,24.66,36.48,0.97,-26.06,-20.38,-63,544,-935,26.5,22.8,3.6,26.5,1.4,-30.1,5.73,2.39,-28.2,29.9
2012-07-19 01:57:00,0.0,1.9022,0.0011,388.06,0.36,35.5,27.7,138.05,32.90,24.65,36.47,1.03,-26.07,-20.92,-63,544,-935,26.5,22.7,3.5,26.5,1.5,-30.1,5.73,2.38,-27.8,29.9
2012-07-19 01:58:00,0.0,1.9026,0.0010,387.94,0.36,36.9,26.8,138.05,32.89,24.65,36.48,1.06,-26.08,-21.43,-63,544,-934,26.5,22.9,3.6,26.4,1.4,-30.1,5.73,2.39,-27.7,30.0
2012-07-19 01:59:00,0.0,1.9023,0.0009,387.94,0.36,35.9,26.2,138.05,32.87,24.66,36.48,1.01,-26.09,-21.90,-63,544,-934,26.5,22.9,3.7,26.4,1.4,-30.1,5.73,2.40,-27.7,30.0
2012-07-19 02:00:00,0.0,1.9028,0.0009,387.86,0.30,34.0,23.7,138.05,32.85,24.65,36.48,0.96,-26.11,-22.34,-63,544,-934,26.5,23.0,3.7,26.4,1.4,-30.1,5.73,2.41,-27.7,30.0
2012-07-19 02:01:00,0.0,1.9021,0.0009,388.01,0.27,31.0,27.3,138.05,32.83,24.65,36.48,1.02,-26.12,-22.75,-63,544,-934,26.5,22.8,3.6,26.5,1.4,-30.1,5.73,2.40,-27.7,30.1
2012-07-19 02:02:00,0.0,1.9021,0.0010,387.92,0.30,34.8,26.8,138.05,32.81,24.65,36.49,1.05,-26.13,-23.13,-63,544,-934,26.5,23.2,3.8,26.4,1.4,-30.1,5.73,2.40,-27.7,30.1
2012-07-19 02:03:00,0.0,1.9011,0.0009,387.76,0.36,43.1,29.4,138.05,32.80,24.66,36.48,1.04,-26.14,-23.50,-63,544,-935,26.5,23.4,3.9,26.4,1.4,-30.1,5.73,2.39,-27.7,30.0
2012-07-19 02:04:00,0.0,1.9012,0.0010,388.00,0.35,34.0,21.9,138.06,32.78,24.66,36.48,0.97,-26.15,-23.84,-63,544,-935,26.5,23.2,3.8,26.4,1.5,-30.1,5.73,2.39,-27.7,30.1
2012-07-19 02:05:00,0.0,1.9011,0.0012,388.11,0.36,38.9,27.2,138.05,32.77,24.66,36.48,0.97,-26.17,-24.17,-63,544,-935,26.5,23.4,3.9,26.4,1.5,-30.1,5.73,2.39,-27.7,30.1
2012-07-19 02:06:00,0.0,1.9015,0.0009,388.22,0.30,35.9,29.2,138.05,32.75,24.65,36.47,1.03,-26.18,-24.48,-63,544,-934,26.5,23.0,3.7,26.5,1.5,-30.1,5.73,2.39,-27.7,30.1
2012-07-19 02:07:00,0.0,1.9013,0.0010,388.03,0.30,35.2,24.6,138.05,32.74,24.65,36.49,1.06,-26.19,-24.77,-63,544,-934,26.5,23.0,3.7,26.5,1.4,-30.2,5.73,2.39,-27.6,30.1
2012-07-19 02:08:00,0.0,1.9012,0.0007,388.06,0.31,35.1,28.4,138.05,32.72,24.65,36.48,1.02,-26.20,-25.03,-63,544,-934,26.5,23.0,3.6,26.4,1.4,-30.3,5.73,2.40,-27.6,30.1
2012-07-19 02:09:00,0.0,1.9018,0.0009,388.07,0.32,37.5,27.6,138.05,32.71,24.65,36.48,0.96,-26.21,-25.29,-63,544,-934,26.5,22.4,3.3,26.4,1.4,-30.3,5.73,2.40,-27.7,30.1
2012-07-19 02:10:00,0.0,1.9017,0.0011,388.11,0.31,41.8,33.1,138.05,32.69,24.65,36.49,1.00,-26.22,-25.54,-63,544,-934,26.5,22.4,3.3,26.4,1.4,-30.4,5.73,2.40,-27.7,30.2
2012-07-19 02:11:00,0.0,1.9017,0.0009,388.04,0.31,28.6,23.7,138.06,32.68,24.65,36.49,1.06,-26.23,-25.76,-63,544,-934,26.5,22.4,3.3,26.4,1.4,-30.3,5.73,2.40,-27.7,30.2
2012-07-19 02:12:00,0.0,1.9016,0.0010,387.80,0.28,41.5,28.2,138.06,32.66,24.65,36.49,1.03,-26.24,-25.97,-63,544,-934,26.5,22.8,3.5,26.4,1.4,-30.4,5.73,2.39,-27.8,30.2
2012-07-19 02:13:00,0.0,1.9011,0.0011,387.95,0.31,27.1,22.7,138.06,32.64,24.66,36.48,0.98,-26.25,-26.18,-63,544,-935,26.4,22.8,3.5,26.4,1.4,-30.4,5.73,2.39,-27.8,30.1
2012-07-19 02:14:00,0.0,1.9009,0.0008,388.23,0.31,29.0,27.5,138.06,32.62,24.65,36.47,0.95,-26.26,-26.17,-63,544,-935,26.4,22.5,3.3,26.4,1.4,-30.3,5.73,2.39,-27.8,30.1
2012-07-19 02:15:00,0.0,1.9005,0.0011,388.19,0.35,30.4,25.6,138.06,32.61,24.66,36.48,1.00,-26.27,-25.99,-63,544,-935,26.4,22.5,3.3,26.4,1.4,-30.4,5.73,2.39,-27.8,30.0
2012-07-19 02:16:00,0.0,1.9009,0.0009,388.23,0.27,32.0,23.6,138.06,32.59,24.65,36.50,1.05,-26.28,-26.12,-63,544,-935,26.4,22.2,3.1,26.4,1.4,-30.3,5.73,2.40,-27.9,29.9
2012-07-19 02:17:00,0.0,1.9007,0.0010,388.16,0.24,30.4,26.5,138.06,32.58,24.65,36.48,1.05,-26.29,-26.29,-63,543,-935,26.4,22.2,3.1,26.3,1.4,-30.4,5.73,2.40,-27.9,29.9
2012-07-19 02:18:00,0.0,1.9007,0.0009,388.06,0.30,28.8,23.2,138.06,32.56,24.65,36.49,0.94,-26.31,-26.10,-63,543,-935,26.3,22.4,3.2,26.3,1.4,-30.4,5.73,2.40,-27.9,29.8
2012-07-19 02:19:00,0.0,1.9005,0.0010,388.24,0.36,25.8,23.9,138.06,32.54,24.65,36.48,0.99,-26.33,-26.07,-63,544,-934,26.3,22.5,3.2,26.3,1.4,-30.4,5.73,2.40,-27.9,29.8
2012-07-19 02:20:00,0.0,1.9000,0.0010,388.29,0.32,24.2,25.9,138.06,32.53,24.66,36.48,0.96,-26.33,-26.22,-63,543,-934,26.3,23.0,3.5,26.3,1.4,-30.4,5.73,2.40,-27.9,29.8